La Méridienne

Class.NomPrénomSexeCatTempsVitesse
1LASSEREKevinMSE00:31:3718,98 km/h
2MARTINSKEVINMSE00:32:0618,69 km/h
3ROUVIERValentinMSE00:32:3518,41 km/h
4DORGANSMathieuMSE00:32:4718,30 km/h
5PRADYSimonMSE00:32:5118,26 km/h
6BORDESNathanaelMV100:33:3217,89 km/h
7BARTIERBenoitMSE00:33:3917,81 km/h
8MARTINSDimitriMES00:33:5017,73 km/h
9JOUGLARFrancoisMSE00:34:0917,54 km/h
10RUEGrégoryMSE00:34:1217,54 km/h
11ROUZAUDBenoitMSE00:34:1717,49 km/h
12CHALUSBENOITMSE00:34:2417,43 km/h
13LASSERELudovicMSE00:34:2917,39 km/h
14ANDRIEUMartialMSE00:34:3217,37 km/h
15DARRASEdmondMCA00:34:3917,32 km/h
16GASSIHussainMSE00:34:4917,22 km/h
17LABEDEJONATHANMSE00:34:5817,15 km/h
18MOLLÉMathieuMSE00:35:0017,13 km/h
19DELCAYROUUgoFJU00:35:0517,1 km/h
20GARCIAQuentinMSE00:35:0517,09 km/h
21PECOTMartinMJU00:35:1217,04 km/h
22MALEMBITSMarcMES00:35:1717 km/h
23BOUINAdrienMJU00:35:1716,98 km/h
24DAS NEVESYanisMCA00:35:2616,93 km/h
25RINGENBACHThomasMES00:35:2416,93 km/h
26MINVIOLEAlexandreMSE00:35:2416,93 km/h
27TABARANTNicolasMSE00:35:2816,92 km/h
28CLAUDEThierrMV100:35:2816,9 km/h
29RICARDThibaultMES00:35:3016,89 km/h
30BEZIATLaurentMSE00:35:3516,85 km/h
31CARONGautierMSE00:35:3316,85 km/h
32MARGUIERHubertMV100:35:4216,81 km/h
33FABRESylvainMSE00:35:4316,78 km/h
34CAUHAPEPierreMSE00:35:4616,77 km/h
35ALBERGEFlorianMSE00:35:4916,75 km/h
36PONTICOLucasMES00:35:5116,74 km/h
37RUBIOPhilippeMSE00:35:5316,71 km/h
38GALHAWilliamMSE00:35:5116,71 km/h
39SORBETSFreddyMSE00:35:5116,69 km/h
40CAZABATRemiMV100:35:5816,67 km/h
41RODRIGUEZJoëlMSE00:36:1016,59 km/h
42BARRAUAlexisMJU00:36:1116,57 km/h
43CAZAUXSylvainMSE00:36:1216,53 km/h
44MARTYBriceMSE00:36:2216,5 km/h
45SENTUCQQuentinMSE00:36:2516,46 km/h
46CAZAJUSVincentMSE00:36:2916,45 km/h
47CONTEGuillaumeMSE00:36:3216,4 km/h
48POMESFlorentMSE00:36:4116,33 km/h
49PROUSTFredericMV200:36:4616,3 km/h
50BOSCHJean PhilippeMSE00:36:4816,29 km/h
51VERAMichaelMV100:36:4716,29 km/h
52PUECHCyrilMV100:36:5016,28 km/h
53DOUMASJulesMCA00:36:5816,23 km/h
54MOLINERDenisMV100:37:0016,22 km/h
55SOHIERBastienMSE00:37:0116,17 km/h
56LASSERRELorisMSE00:37:0716,14 km/h
57MOLINERValentinMES00:37:1316,11 km/h
58SALOMONEThomasMSE00:37:1116,1 km/h
59THEILPierreMJU00:37:2016,06 km/h
60PIERRATdenisMV300:37:1916,06 km/h
61MEYNIERRichardMV100:37:2216,04 km/h
62DUCHETGéraldMV100:37:2516,01 km/h
63JOURDANHadrienMSE00:37:3016 km/h
64CHAUMEILRemiMSE00:37:3115,99 km/h
65NOGUESBenoitMSE00:37:3415,96 km/h
66VIGNOTLauraFSE00:37:4015,92 km/h
67AMBERTPhilippeMV200:37:4315,9 km/h
68JAFFRESEwenMES00:37:4915,86 km/h
69CHILETGauthierMSE00:37:4915,85 km/h
70FILLONRaphaelMSE00:37:5015,85 km/h
71ALGORRYYvesMV100:37:5615,78 km/h
72MARIEBenjaminMSE00:38:0115,78 km/h
73PERONMarinaFSE00:38:0315,77 km/h
74VUAILLATFranckMV100:38:0415,74 km/h
75DEBERGUELaurentMV200:38:1015,7 km/h
76JARDRYThibautMES00:38:1315,69 km/h
77RAMOSLionelMV100:38:1515,68 km/h
78PONTICODidierMV100:38:2015,65 km/h
79GUITTARDChristopheMV100:38:2315,62 km/h
80GARCIAJonathanMSE00:38:0915,6 km/h
81MARONESETheoMCA00:38:2715,6 km/h
82VIDALPaul EtienneMV100:38:2315,59 km/h
83GEUREYAlainMV300:38:3215,57 km/h
84QUEFELEANJean-BaptisteMSE00:38:3115,56 km/h
85DESTANGDimitriMES00:38:3915,52 km/h
86LARRIEUJimmyMV100:38:3715,5 km/h
87RAUDINYvesMV200:38:4415,49 km/h
88LAROSEThomasM-00:38:4415,48 km/h
89DA COSTA REISMyleneFSE00:38:4515,46 km/h
90DUCOSDamienMSE00:38:4715,46 km/h
91TREMOULUAnthonyMSE00:38:4915,45 km/h
92LAVAURElsaFSE00:38:4615,45 km/h
93DUBOEJean-noelMJU00:38:5115,42 km/h
94GOURIONDavidMV100:38:5415,4 km/h
95LE MESTREKevinMJU00:39:0315,35 km/h
96MARTINEZJeremyMSE00:39:0815,31 km/h
97CARDESSEDamienMSE00:39:0815,31 km/h
98LAVEDRINEVINCENTMSE00:39:1015,29 km/h
99BORDENAVEANDREMV200:39:1515,27 km/h
100FERREIRAGrégoryMSE00:39:2115,23 km/h
101PAJINADONStéphaneMSE00:39:2015,21 km/h
102THEATEDamienMSE00:39:3115,16 km/h
103CUNINThomasMV100:39:2715,16 km/h
104LANNEPaulMJU00:39:3315,15 km/h
105ORTIZChristopheMV100:39:3415,15 km/h
106FOUCATDidierMV100:39:3115,14 km/h
107LAVALThierryMV100:39:3315,14 km/h
108GOIZANIBilelMSE00:39:3415,11 km/h
109DA COSTAAlexandreMSE00:39:4115,1 km/h
110BOURDIEUMaximeMSE00:39:4015,09 km/h
111PINTOPhilippeMV100:39:3815,08 km/h
112GALISSIERDavidMV100:39:4615,06 km/h
113GOURRATBertrandMV200:39:4515,06 km/h
114ZERKOUNEAbbasMV100:39:4415,05 km/h
115DASQUEJulienMSE00:39:4815,04 km/h
116DALETBenjaminMSE00:39:5415,04 km/h
117THIBAULTMarcMV100:39:5015,02 km/h
118FAUTRAMariusMV200:39:5515,02 km/h
119RICARTBenoitMSE00:39:5315,01 km/h
120BERTOSAlexandreMSE00:39:5515 km/h
121JUIGNETMickaelMSE00:39:5715 km/h
122BERTOSMathieuMSE00:39:5514,99 km/h
123AUDUBERTEAUAlexandreMSE00:39:5714,99 km/h
124VICENTEVictorMV100:40:0014,99 km/h
125JEANPhilippeMV200:39:5514,98 km/h
126COMEMichaelMSE00:40:0814,94 km/h
127BERNIERFabriceMV100:40:0414,93 km/h
128DECHAUMETThomasMSE00:39:5414,92 km/h
129SAPALLYGUYMV300:40:1014,9 km/h
130NABAISGillesMV100:40:1614,88 km/h
131BOURGERIEPascalMSE00:40:1114,86 km/h
132DUVIGNEAUJeromeMV100:40:1914,85 km/h
133LARROUTUREJeromeMSE00:40:2214,84 km/h
134IGLISIASNathanMSE00:40:2414,83 km/h
135CABOTYoannMES00:40:2514,83 km/h
136FERREIRAJoséMSE00:40:2414,83 km/h
137DESBARATSTHIERRYMV200:40:2014,83 km/h
138LETUEValentinMES00:40:2914,81 km/h
139RAULTStephaneFSE00:40:2114,79 km/h
140ROUSSEAULeoFSE00:40:2014,79 km/h
141TABARANTYvesMV400:40:3214,78 km/h
142LARROUTUREBaptisteMSE00:40:3614,75 km/h
143MURATMichaelMSE00:40:4414,71 km/h
144ARGOINVincentMV100:40:4414,69 km/h
145CLAVERIEJacquesMSE00:40:4914,68 km/h
146ARTUSStephaneMSE00:40:5114,66 km/h
147GOMEZWilliamsMV100:40:4814,66 km/h
148DEWALLESPaulMSE00:40:4614,65 km/h
149CHALVIGNACGauthierMJU00:40:4914,63 km/h
150ICARTJosephMV200:40:5314,63 km/h
151TERTROUVincentMSE00:40:5714,62 km/h
152MUNBenjaminMSE00:41:0014,6 km/h
153SLATERDavidMV100:40:4014,6 km/h
154PEYREGNEVincentMSE00:41:0314,57 km/h
155DUFRENEPatriceMV100:41:0014,57 km/h
156CLADIEREMATHIEUMSE00:41:0514,57 km/h
157DELCAYROUFabriceMV200:41:1014,56 km/h
158DIVIFRANCISMV200:41:1214,55 km/h
159CÉPRÉCédricMV100:41:0814,55 km/h
160CHAUMEILJea NMSE00:41:1414,52 km/h
161LAYLeoMES00:41:1714,51 km/h
162FERDINANDGillesMV100:41:1214,5 km/h
163MALINGREJeromeMV100:41:1514,5 km/h
164BURBIDGERupertMV100:41:1214,49 km/h
165SPITERICedricMSE00:41:1714,48 km/h
166SARMIENTOJose ManuelMSE00:41:1514,48 km/h
167CALLEAUJEREMYMSE00:41:2114,48 km/h
168CAZENAVERémyMV100:41:1914,47 km/h
169CHENAYKevinMSE00:41:1114,47 km/h
170ALEGREJérémyMSE00:41:2714,45 km/h
171CAMPRUBIDidierMV300:41:4214,38 km/h
172MONTALESCOTBrunoMV200:41:3914,37 km/h
173IDEDavidMV400:41:4414,35 km/h
174ARNAREZAlexandreMSE00:41:5014,31 km/h
175GLERELaurentMV100:41:4714,31 km/h
176MEDINAKarineFV100:41:5114,3 km/h
177HERNANDEZAlexandreMSE00:41:4914,29 km/h
178CASSAIGNEDanelMV100:41:5014,27 km/h
179LETANNEURPierrickMV200:41:5914,27 km/h
180BELKREIRDidierMSE00:41:5214,26 km/h
181GAYATJean-PierreMV100:41:5314,26 km/h
182CAZENAVELudovicMSE00:41:5814,24 km/h
183HENCHEPatrickMV100:41:5514,23 km/h
184LABBEEGaetanMSE00:42:1014,2 km/h
185LURDEMickaelMSE00:42:1214,18 km/h
186CHANE-TECKCédricMSE00:42:0714,16 km/h
187TINTETJéromeMV100:42:1014,16 km/h
188SALLABERRYAlainMV100:42:1114,14 km/h
189PELTIERAlexandreMSE00:42:2514,12 km/h
190LABADIEEliottMJU00:42:1814,08 km/h
191LABADIEMathieuMV100:42:1914,07 km/h
192LACRABEREFabienMV100:42:3714,03 km/h
193SANCHOUStéphaneMSE00:42:3814,03 km/h
194DAURYRomualdMV100:42:3414,02 km/h
195VERGEQuentinMSE00:42:3914,02 km/h
196BARREURJarodMCA00:42:4514,02 km/h
197LAMANDEYPhilippeMV100:42:4614,02 km/h
198FILADELFIANicolasMSE00:42:4914,01 km/h
199CORNUOlivierMSE00:42:4514 km/h
200CESTACMarcMV200:42:4713,99 km/h
201THOUVENOTJean LucMV200:42:5213,98 km/h
202DESREMAUXThomasMSE00:42:5013,96 km/h
203VELUTDANIELMV200:42:5713,95 km/h
204DE OLIVEIRAArnaudMSE00:42:4513,94 km/h
205ZANINGuillaumeMSE00:42:5813,94 km/h
206CHAUMEILAudreyFSE00:43:0213,94 km/h
207DUCASSEGuillaumeMV100:42:5113,94 km/h
208MARTIJulieFSE00:42:5213,93 km/h
209CABANNEJulienMSE00:42:5513,9 km/h
210CABANNEThierryMV200:43:0713,9 km/h
211KERBIRIOULeaFCA00:43:0813,89 km/h
212SOUYEAUXjeromeMV100:43:0513,89 km/h
213MARQUEJulienMSE00:43:0713,88 km/h
214HAITMohamedMV100:43:1213,87 km/h
215MARTNGregoryMSE00:43:1513,86 km/h
216DESTANGJean FrancoisMV100:43:0713,86 km/h
217SOMPROUGeromeMV100:43:1713,84 km/h
218LOUSTAUPIERREMV200:43:1713,83 km/h
219BIVESNoelMV100:43:2313,82 km/h
220SANCHEZLionelMSE00:43:1513,8 km/h
221MURATOREJosephMV200:43:3013,79 km/h
222HEGUILUSTOYValérieFV100:43:2913,79 km/h
223WURTZFredericMV200:43:2213,73 km/h
224DELMASJean JacquesMV400:43:3613,72 km/h
225MARTINPascalMV100:43:4613,68 km/h
226HEGUILUSTOYPhilippeMV200:43:4913,67 km/h
227BATTAULTRomainMSE00:43:4013,67 km/h
228BOUCHERSébastienMSE00:43:4813,58 km/h
229BOURGEOISRenaudMV100:43:5513,58 km/h
230SCHAEFFERFabriceMV200:43:5613,58 km/h
231SKOWRONEKPatrickMV200:43:5713,57 km/h
232SIMONCristeleFV100:44:0913,56 km/h
233BERTHEStephaneMV200:43:5913,56 km/h
234LABEDEJeromeMV100:44:0313,56 km/h
235FRECHETArseneMJU00:44:2213,51 km/h
236BRUGIRARDStephaneMV100:44:1713,51 km/h
237BARRAUSEBASTIENMV100:44:1613,5 km/h
238TINTETGILLESMV100:44:1413,5 km/h
239ARNAULTNicolasMSE00:44:2013,48 km/h
240POMESPierreMV300:44:2713,47 km/h
241FOURELPierreMV300:44:3313,47 km/h
242MARFAINGCarineFV100:44:2813,46 km/h
243MONTEGUTHiromiFSE00:44:2913,43 km/h
244NASSOYGaelleFSE00:44:3813,43 km/h
245OLIVEMARYVONNEFV200:44:3313,42 km/h
246NASSOYLOICMSE00:44:4013,42 km/h
247PEREZVeroniqueFV200:44:4113,41 km/h
248MEDINAThierryMV200:44:5313,36 km/h
249SINAUDOLIVIERMV200:44:4413,35 km/h
250DUBOISPhilippeMV200:44:4613,34 km/h
251CANADASYoannMV100:44:5113,34 km/h
252DIANDETYohannMV100:44:5613,32 km/h
253BLASCOMurielFV200:44:5913,32 km/h
254JOACHIMMathieuMV100:45:1013,25 km/h
255BEDIEEMartineFV300:45:1713,25 km/h
256DEBEZJeremyMSE00:45:0013,25 km/h
257FABREThomasMSE00:44:5813,24 km/h
258BRICAULTPhilippeMV200:45:1413,23 km/h
259DESPIAU COURETJean ClaudeMV100:45:0613,23 km/h
260HEUGAThomasMSE00:45:1313,23 km/h
261MORINJohanMSE00:45:2013,21 km/h
262GUILLENAlainMV200:45:1013,21 km/h
263FERNANDESMichelMV100:45:0913,2 km/h
264ROGERThomasMSE00:45:1913,2 km/h
265NDIAYEPapaMSE00:45:2613,15 km/h
266GUILLOTINFranckMV200:45:3513,13 km/h
267ORTHOLANDimitriMSE00:45:3013,11 km/h
268CARTOUXLucasMCA00:45:4913,08 km/h
269ROSSIGNOLJean ChristopheMV200:45:3913,07 km/h
270DEMAYSteveMV200:45:3713,06 km/h
271DOUSSE-PLANTEHugoMSE00:45:5413,05 km/h
272DALÉASBRIGITTEFV200:45:5213,05 km/h
273BARRIEREVeroniqueFV100:45:5413,05 km/h
274CONSTANTINCatherineFV100:45:4213,05 km/h
275GESTASAndreMV300:45:5613,04 km/h
276LATOURFlorentMV100:45:4813,03 km/h
277LENDRISJeremieMCA00:46:0113,02 km/h
278FLORESJérômeMSE00:45:5113,01 km/h
279ABRIVARDJacquesMV300:46:1212,97 km/h
280LASSERRELudovicMSE00:46:0012,96 km/h
281AURIACRomainMSE00:46:2312,89 km/h
282WOUTSAlainMSE00:46:2112,85 km/h
283DUCOURNAUPierreMV200:46:2212,84 km/h
284LEFEBVREWilliamMV100:46:2712,83 km/h
285LUCBERNETChristopheMV100:46:3312,83 km/h
286LETUEEricMV200:46:4112,82 km/h
287DI TRAPANIJosephMV300:46:4212,82 km/h
288DOUMENJOUChristineFV200:46:4012,81 km/h
289SARTOLOUGillesMSE00:46:4512,8 km/h
290DAURIACFredericMV200:46:3812,8 km/h
291IBAGNEGuilhemMV200:46:5512,79 km/h
292IZERNStephaneMSE00:46:5012,78 km/h
293LAMAGNEREJean ClaudeMV300:46:5512,77 km/h
294LALAQUEJean-PierreMV200:46:4112,75 km/h
295BALLAIREOlivierMV200:46:5612,75 km/h
296GAYETCeliaFV100:46:5712,7 km/h
297OUKHABOUAdilMSE00:47:1012,7 km/h
298DUCASTAINGMichelMV200:47:0112,69 km/h
299MARIONNEAUFannyFSE00:47:1212,69 km/h
300DANTONDominiqueFV100:47:0912,67 km/h
301ABADIEPatriceMV100:47:1812,66 km/h
302GASVERDEFranckMV200:47:1012,64 km/h
303DEJEANNEEricMV200:47:1112,62 km/h
304DE CIANTISToninoMV100:47:2412,61 km/h
305CAZAUXThierryMV200:47:3112,6 km/h
306CAZENAVEAmelieFSE00:47:3512,59 km/h
307CARONNicolasMES00:47:3712,58 km/h
308CASTELLSSylvainMJU00:47:3212,58 km/h
309DELMASAdrienMSE00:47:3112,56 km/h
310HABRIALMichaelMV100:47:3912,54 km/h
311THEILJean FrançoisMV100:47:3412,53 km/h
312DE LA DEVEZEPhilippeMV100:47:4812,5 km/h
313DIOTOLIVIERMV100:47:5412,49 km/h
314MARQUECyrilleMV100:47:4312,49 km/h
315BENSALAMAbdelMV200:47:5512,46 km/h
316DELSAUSylvainMV200:48:0912,42 km/h
317DUBUCQDOMINIQUEMV300:48:1112,41 km/h
318SAINT ELOIYannickMSE00:48:0812,41 km/h
319LAVIEAlainMV200:48:0112,41 km/h
320ESTEVEZPaulMES00:48:1412,4 km/h
321LACROUTSBaptisteMV100:47:5812,4 km/h
322BAILLESMathiasMES00:48:0812,4 km/h
323NARSAlexandreMV100:48:0912,39 km/h
324COLLMarieFSE00:48:1012,39 km/h
325FADELLIChristineFV300:48:2412,38 km/h
326ROUQUETTEMichelMV300:48:2412,38 km/h
327TOURNOUXJulieFSE00:48:3112,33 km/h
328BEDRAAliMV100:48:1412,33 km/h
329CAPBERPhilippeMV200:48:4012,3 km/h
330FRONTONGuillaumeMSE00:48:3712,3 km/h
331CEBRANTGregoryMV100:48:3212,3 km/h
332DELAVOIEChloéFSE00:48:2512,29 km/h
333GEFFROINGérardMV400:48:4712,24 km/h
334LALAQUESebastienMV100:48:5112,19 km/h
335LALOITJasmineFSE00:49:0412,18 km/h
336MURATChristopheMV100:49:1112,17 km/h
337MALTEMPIYannickMV200:49:1212,16 km/h
338MARMOUGETGeraldineFV100:49:0212,16 km/h
339TURPINStephaneMV200:49:0212,16 km/h
340MAGGIOMarcMV300:49:0712,15 km/h
341FERNANDEZJoseMV300:49:2212,12 km/h
342CASTEXRenaudMV100:49:4012,03 km/h
344ESCALASChristianMV200:50:0211,97 km/h
345SALLESEtienneMSE00:49:5311,96 km/h
346PAULINSarahFV100:50:0011,95 km/h
347DUCAMPChristianMV200:50:0111,95 km/h
348MAGNIONICamilleFSE00:49:5811,92 km/h
349SANCHEZDavidMV100:50:1211,91 km/h
350JACOUMETStephanieFSE00:50:1611,91 km/h
351RIOUJulieFSE00:50:1411,89 km/h
352PAGÈSLaurentMV100:50:1211,88 km/h
353DUBOSCMickaelMSE00:50:2311,84 km/h
354DUBOSCElodieFSE00:50:3611,8 km/h
355GREUZATDavidMV100:50:3111,8 km/h
356CERETTANicolasMSE00:50:3111,79 km/h
357DEUTSCHEloiseFV100:50:4711,77 km/h
358SALOMONEGeraldineFSE00:50:3711,76 km/h
359FRANCISCOMaximeMSE00:50:5511,72 km/h
360MONTOYAFREDERICMSE00:51:1411,71 km/h
361PELLEGRINESoniaFV100:51:0211,69 km/h
362AUBACSandyFSE00:51:0411,68 km/h
363CAZAYOUSJulienMSE00:51:1211,66 km/h
364PHILIPPEAlainMV200:51:1011,66 km/h
365GONZALEZBenoitMSE00:51:1711,65 km/h
366LAHOILLEMelanieFSE00:51:2911,61 km/h
367MAGGIOCarineFSE00:51:2411,61 km/h
368MAMPRINSimoneFV300:51:3811,59 km/h
369SAINT SEVERINCorinneFSE00:51:3511,59 km/h
370ESTIREBOISJean ClaudeMV300:51:3811,56 km/h
371ARNAUDINJean- ClaudeMV300:51:3911,56 km/h
372LEHONGPierreMV100:51:5111,54 km/h
373DE FREITASTonyMV200:51:4211,54 km/h
374LAMAZOU-BETBEDERFlorentMSE00:51:4711,53 km/h
375LABENELLEFredericMV100:51:4811,52 km/h
376CAUVELStephanieFSE00:52:0111,49 km/h
377GOURRATGaelleFV100:52:0011,49 km/h
378FRANCESHélèneFSE00:51:5311,49 km/h
379GESTASEmilieFSE00:52:0211,47 km/h
380LABATMarleneFV100:52:1111,45 km/h
381SAINT ELOIDimitriMSE00:52:1011,45 km/h
382BARBERachelFV100:52:1211,45 km/h
383TIRADOPhilippeMV100:52:0611,44 km/h
384PROUSTMarie ChristineFV200:52:2211,42 km/h
385SAINT CRITBrunoMV200:52:1211,41 km/h
386BERTINPascaleFV200:52:2211,39 km/h
387FORIONicolasMSE00:52:3511,37 km/h
388CAVALLIJean ClaudeMV300:52:2211,37 km/h
389BONNIEUPatrickMV200:52:2611,37 km/h
390PIARROU-CAZALAMaritxuFSE00:52:3111,37 km/h
391CASSOURichardMV300:52:4811,35 km/h
392FONTANSabrinaFV100:52:3111,34 km/h
393LARRÉPierreMSE00:52:4011,34 km/h
394ROMBACHDelphineFV200:52:5511,32 km/h
395HANOTJacquesMV200:52:5211,31 km/h
396DELAVOIEPierreMV200:52:3911,31 km/h
397JAMBONManonFSE00:53:0111,28 km/h
398ALBETLucasMSE00:52:4811,28 km/h
399PROUDHOMLauraFSE00:52:5111,28 km/h
400GRACIASebastienMSE00:52:4711,27 km/h
401CAPYEricMV100:52:5111,27 km/h
402SOUYEAUXMaximeMSE00:52:5211,27 km/h
403BOURIE SAURELCélineFV100:53:0211,25 km/h
404SAURELPascalMV100:53:0211,25 km/h
405FORIOStephaneMV100:53:1411,22 km/h
406FORIOSandrineFV100:53:1311,22 km/h
407DUCAMPAlainMV200:53:2211,21 km/h
408DELPECHSylvieFV100:53:2511,2 km/h
409MADRIGALDanielMV100:53:2611,2 km/h
410BONNIEUFlorianMJU00:53:4311,1 km/h
411ESPINOSAMichelMV200:53:5511,08 km/h
412TREYYannickMSE00:54:1111,03 km/h
413CAZELLELottieFSE00:54:1011,02 km/h
414PLANCHECLEAFSE00:54:2210,96 km/h
415DENATJérômeMSE00:54:5910,86 km/h
416VITARELAChristelleFV100:55:0710,82 km/h
417VIGNAU-LOUSTAURenéeFV200:55:1510,8 km/h
418HUGUETEmilieFSE00:55:2610,79 km/h
419CHAVANELThierryMV200:55:2710,77 km/h
420PRIOUSophieFV200:55:3310,75 km/h
421BOURDELASDouniaFSE00:55:5010,71 km/h
422BOURDELASClementMSE00:55:5010,71 km/h
423CAMBOURSLaurenceFV200:56:0310,67 km/h
424LASSERRECéliaFES00:56:0810,65 km/h
425MUSIALMelissaFSE00:56:0310,64 km/h
426FERRASRomainMSE00:56:0910,63 km/h
427DOYHAMBEHEREChristelleFSE00:56:1810,61 km/h
428BOUSSESCyrilMSE00:56:4010,54 km/h
429DELCOURSandrineFV100:56:3510,53 km/h
430DELCOURAlexandreMV100:56:3810,53 km/h
431GODARDAdrienMSE00:56:4810,5 km/h
432BERTINLucieFSE00:56:5110,49 km/h
433GRACYElisabethFV200:57:1010,46 km/h
434SAMALENSEricMV100:57:0110,46 km/h
435SAMALENSBernardMV300:57:0310,46 km/h
436FAROULTMagaliFV100:57:2110,43 km/h
437GOMEZOLIVIERMSE00:57:1810,4 km/h
438DAGORNGaelMSE00:57:5910,31 km/h
439OLIVEIRA SAIsabelFSE00:57:5510,3 km/h
440DESTANGNolanMJU00:58:3110,22 km/h
441LE RETTatianaFSE00:58:2810,21 km/h
442DUPASCorinneFV100:58:4110,2 km/h
443FERNANDEZCarmenFV300:58:4910,18 km/h
444ARRIBARATDidierMV200:58:4510,15 km/h
445SAINT CRITRomyFSE00:58:4410,15 km/h
446DEJEANNENoemieFSE00:58:5310,13 km/h
447TURROUAnnelyseFSE00:58:5910,12 km/h
448JACQUOTJohannMV100:59:0110,11 km/h
449PERALTAValérieFV200:59:1210,06 km/h
450DOMENGELaurentMV200:59:1710,05 km/h
451ZANDONALydieFV400:59:3610,04 km/h
452LOURELLudovicMV200:59:4910,03 km/h
453ARTIGARREDECecileFV100:59:3410,03 km/h
454BLANCHARDMercedesFV200:59:2910,02 km/h
455SOUYEAUEmilieFSE00:59:2910,02 km/h
456BIRANJoelMV200:59:3110,01 km/h
457GARRIDOGiseleFV200:59:3510,01 km/h
458BURELFrancoisMV100:59:439,99 km/h
459LE BRASLucieFES00:59:429,99 km/h
460NADAUBenedicteFV101:00:039,96 km/h
461ROUSSELThomasMSE01:00:099,92 km/h
462JAMESClaireFV101:00:269,89 km/h
463SANCHEZOceaneFES01:00:289,89 km/h
464FERNANDEZ-MARCOTTELauraFSE01:00:409,85 km/h
465ANTONIAZZIMurielFSE01:01:289,7 km/h
466CASTELJohanMSE01:01:549,63 km/h
467POTIERCharlotteFSE01:01:559,62 km/h
468MATHIEUMaximeMSE01:01:569,62 km/h
469MARQUESSilvioMSE01:02:059,61 km/h
470MANCESoniaFV101:02:249,55 km/h
471ARBERETDominiqueMV201:02:249,55 km/h
472MALBERTThomasMV101:02:599,5 km/h
473LIMOURAmandineFSE01:02:549,49 km/h
474GOUDIERIsabelleFV101:03:159,44 km/h
475ROBERTOUCatherineFV101:03:349,4 km/h
476DESTANGGladysFV101:03:479,38 km/h
477DUCHATELDavidMSE01:03:589,35 km/h
478LAGUESMarleneFSE01:03:589,35 km/h
479ARRIBARATGermainMSE01:04:409,23 km/h
480CONSTANSAuréliaFSE01:04:419,23 km/h
481DASSIEUGerardMV201:05:319,16 km/h
482SOUPLETJulieFSE01:05:219,15 km/h
483SOUPLETNathalieFV201:05:279,14 km/h
484OUFPatrickMV301:05:409,1 km/h
485WURTZCatherineFV201:05:469,08 km/h
486MARONESESophieFV101:10:418,45 km/h
487DE OLIVEIRABrunoMV101:10:408,45 km/h
488PORTERESAlexiaFSE01:12:558,2 km/h
489MONTESSUYFlorianMSE01:12:568,2 km/h
490AIROLDIJacquesMSE01:13:238,14 km/h
 Pas de résultats